Location: Street
(51.1247°N, 2.7429°W)
Time: 03:31:19
(UTC+00:00)

Transit 2A Rocket - Pass Details

Date: 26 November 2020
Orbit: 592 x 911 km, 66.7° (Epoch: 16 January)

Event Time Altitude Azimuth Distance (km) Brightness Sun altitude
Exits shadow 04:03:37 26° 25° (NNE) 1,571 6.8 -34.1°
Drops below altitude 10° 04:05:56 10° 34° (NNE) 2,370 8.0 -33.7°
Sets 04:08:18 0° 38° (NE) 3,252 8.8 -33.4°
